カタログに戻る

BREEZE-M R/B

運用中HEO
NORAD 37799·ROCKET BODY·🇷🇺 Russia

打ち上げ Aug 17, 2011 から Baikonur Cosmodrome

Loading…

次のパス (今後24時間)

TLE

最新Source: Space-Track

元期: Sep 13, 2026, 20:33 UTC

1 37799U 11045B   26256.85639618 -.00000054  00000-0  00000+0 0  9992
2 37799  51.2790  73.3235 5576262  38.4518 350.4735  3.90437062214981

AllMySatでBREEZE-M R/Bをリアルタイム追跡

Download on the App Store